Location: CARMA
(37.2805°N, 118.1419°W)
Time: 01:11:00
(UTC-07:00)

Daily predictions for brighter satellites

Satellite Brightness Start Highest point End
(mag) Time Altitude Azimuth Time Altitude Azimuth Time Altitude Azimuth
Cosmos 2369 Rocket 3.4 00:09:50 34° NE 00:09:50 34° NE 00:13:07 10° NNE
NOSS 3-1 (C) 4.2 00:09:02 10° NNW 00:16:38 64° NE 00:17:48 58° E
Cosmos 2285 Rocket 4.2 00:26:11 67° NNE 00:26:11 67° NNE 00:31:38 10° NNE
Cosmos 1821 Rocket 4.4 00:25:52 54° WNW 00:25:52 54° WNW 00:31:42 10° N
Cosmos 1605 Rocket 4.2 00:26:47 69° NNE 00:26:47 69° NNE 00:32:23 10° N
CZ-2C R/B 4.1 00:26:47 10° NNE 00:29:39 29° NE 00:29:39 29° NE
H-2A R/B 4.4 00:30:22 10° N 00:32:43 30° N 00:32:43 30° N
Cosmos 2123 Rocket 4.4 00:37:37 10° NNW 00:42:53 57° NW 00:42:53 57° NW
Cosmos 1943 Rocket 3.4 00:56:48 34° NE 00:56:48 34° NE 01:00:07 10° NNE
SeaSat 1 4.1 01:10:09 27° NE 01:10:09 27° NE 01:14:10 10° N
Lacrosse 5 3.5 01:32:52 28° NW 01:32:54 28° NW 01:37:17 10° NNE
BREEZE-M DEB (TANK) 4.4 01:31:06 10° NW 01:35:23 57° NE 01:52:39 10° ESE
NOSS 3-1 (A) 4.3 01:28:12 10° NW 01:34:54 55° W 01:34:54 55° W
Cosmos 2369 Rocket 4.0 01:51:36 21° WNW 01:51:59 21° NW 01:56:11 10° N
ATLAS 2AS CENTAUR R/B 2.9 01:49:22 10° NNW 01:57:30 82° ENE 01:58:45 66° SE
Cosmos 2219 3.6 01:54:45 10° NNW 01:59:47 59° NE 01:59:47 59° NE
Cosmos 2227 Rocket 4.5 02:02:55 10° N 02:07:00 20° NE 02:11:03 10° E
Cosmos 44 Rocket 4.3 02:02:02 10° NNW 02:05:47 45° N 02:05:47 45° N
Cosmos 2233 Rocket 4.1 02:08:19 64° E 02:08:19 64° E 02:14:14 10° NNE
CZ-2C R/B 4.3 02:07:47 10° NNW 02:11:10 22° WNW 02:11:10 22° WNW
IRS-P3 4.5 02:15:22 10° NNE 02:20:06 59° ENE 02:20:06 59° ENE
Cosmos 2297 Rocket 4.5 02:24:43 10° N 02:28:55 21° NE 02:33:07 10° ESE
Cosmos 1656 Rocket 4.3 02:35:32 45° NW 02:35:32 45° NW 02:40:43 10° N
SL-08 R/B 3.8 02:36:30 57° NE 02:36:30 57° NE 02:40:40 10° N
Cosmos 1943 Rocket 3.9 02:38:19 21° WNW 02:38:46 21° NW 02:42:55 10° N
Meteor 2-17 Rocket 4.3 02:40:28 75° W 02:40:33 75° W 02:46:42 10° N
NPP 3.6 02:38:51 10° NNE 02:44:08 85° NNE 02:44:08 85° NNE
ATLAS CENTAUR R/B 3.4 02:45:31 26° ESE 02:45:31 26° ESE 02:49:33 10° NE
IRAS Rocket 4.2 02:39:49 10° NNE 02:45:27 72° ESE 02:45:44 70° SE
Cosmos 1570 Rocket 4.4 02:47:16 53° NW 02:47:16 53° NW 02:52:07 10° N
SeaSat 1 4.1 02:49:57 22° WNW 02:49:57 22° WNW 02:51:58 10° NW
Resurs 1-4 Rocket 3.7 02:47:22 10° NE 02:51:44 26° E 02:53:23 22° ESE
BREEZE-M DEB (TANK) 3.8 02:47:13 10° NW 02:51:33 31° N 02:51:33 31° N
Cosmos 44 3.4 02:50:13 10° NNW 02:55:22 76° ENE 02:55:22 76° ENE
SL-16 R/B 3.7 02:52:26 11° SE 02:57:51 39° ENE 03:03:29 10° N
CZ-3B DEB 4.4 02:35:10 10° NW 03:00:40 45° WSW 03:04:22 38° SW
Cosmos 2034 Rocket 4.4 02:59:27 40° SSE 03:01:27 57° E 03:07:30 10° NNE
Cosmos 2228 4.4 03:03:04 30° NW 03:03:04 30° NW 03:05:48 10° N
CBERS 1 LM4 rocket 4.3 02:57:00 10° NNE 03:01:45 80° E 03:01:45 80° E
ERS-2 3.3 02:58:15 10° NNE 03:00:53 43° NNE 03:00:53 43° NNE
ADEOS 3.5 02:58:39 10° NNE 03:03:53 75° ESE 03:04:22 69° SSE
Cosmos 1707 3.9 03:01:57 10° N 03:05:40 39° E 03:05:47 39° E
NOSS 2-1 (E) 4.1 03:08:25 49° E 03:08:25 49° E 03:12:01 10° NE
Geosat 4.2 03:05:56 10° NNE 03:10:50 54° WNW 03:11:07 54° WNW
ARIANE 5 R/B 2.7 03:14:22 10° NNE 03:19:28 64° ESE 03:20:42 48° SSE
Cosmos 1812 Rocket 4.0 03:24:45 48° WNW 03:24:45 48° WNW 03:28:44 10° N
OAO 1 4.4 03:24:44 63° SSW 03:25:10 65° S 03:30:35 10° E
Cosmos 1656 4.0 03:24:08 43° SSE 03:25:49 62° ESE 03:31:26 10° NNE
ERS-1 4.4 03:23:45 10° N 03:28:50 78° WNW 03:29:42 61° SW
Spot 4 Rocket 4.0 03:25:28 10° N 03:30:37 69° WNW 03:31:32 56° SW
Meteor 2-5 Rocket 3.7 03:27:35 10° NNW 03:33:26 75° W 03:35:35 41° S
SME Rocket 4.0 03:33:14 29° SSE 03:36:05 87° ENE 03:43:44 10° NNW
Cosmos 2082 3.5 03:33:10 10° NNW 03:38:49 79° WSW 03:42:03 26° SSE
Cosmos 1697 Rocket 3.1 03:36:48 34° S 03:39:07 59° ESE 03:44:42 10° NNE
IRS-1D 3.3 03:36:40 10° NNE 03:41:38 84° WNW 03:43:05 47° SSW
Cosmos 2298 Rocket 3.9 03:36:47 10° NNW 03:42:05 70° WSW 03:44:02 39° S
CZ-2D R/B 2.2 03:36:55 10° NNE 03:42:25 79° ESE 03:44:43 36° S
Cosmos 1980 Rocket 3.2 03:42:58 20° SSE 03:46:17 39° ESE 03:51:31 10° NE
ATLAS 2AS CENTAUR R/B 4.3 03:42:17 10° WNW 03:46:06 19° W 03:46:06 19° W
Cosmos 1464 Rocket 4.5 03:45:50 36° WSW 03:47:32 44° WNW 03:53:33 10° N
Cosmos 1814 Rocket 4.1 03:46:33 45° SW 03:48:05 66° WNW 03:53:26 10° NNE
Cosmos 2227 Rocket 2.2 03:45:52 10° NNW 03:51:26 57° WSW 03:54:05 30° S
Okean 3 Rocket 3.6 03:49:46 10° NNW 03:54:05 56° W 03:54:48 49° SW
Cosmos 1766 3.1 03:57:00 52° SSW 03:57:54 79° W 04:01:53 10° N
Milstar 3 Cent rocket 3.0 03:57:09 31° SSW 03:58:40 37° SSE 04:06:09 10° ESE
Cosmos 405 Rocket 3.8 03:57:46 10° NNW 04:00:59 31° W 04:00:59 31° W
BREEZE-M DEB (TANK) 4.5 04:02:00 10° NW 04:04:11 20° N 04:07:08 10° ENE
Cosmos 1092 Rocket 4.0 04:00:38 10° N 04:06:57 85° E 04:13:17 10° S
Cosmos 1758 3.8 04:05:42 22° SSE 04:08:09 58° E 04:12:07 10° NNE
DELTA 2 R/B (2) 4.3 04:10:39 44° E 04:10:39 44° E 04:12:01 10° ENE
UNKNOWN OBJECT B 2.7 04:07:42 10° N 04:11:36 67° WNW 04:12:58 37° SW
GEOS 3 Rocket 3.6 04:06:31 10° SSE 04:11:39 57° WSW 04:16:45 10° NW
Cosmos 2297 Rocket 2.3 04:07:48 10° NNW 04:13:17 53° WSW 04:18:45 10° S
OAO 3 Rocket 4.5 04:15:56 21° S 04:15:56 21° S 04:18:32 10° SSE
Cosmos 1953 2.4 04:12:28 23° S 04:14:53 75° E 04:18:56 10° N
MOS 1-B 4.4 04:10:04 10° N 04:15:51 67° WNW 04:19:32 23° SSW
CZ-2D R/B 3.5 04:11:47 10° N 04:16:07 85° WNW 04:18:42 24° SSW
ISS -0.8 04:14:27 10° NNW 04:17:11 24° NNE 04:19:53 10° E
Cosmos 990 Rocket 3.9 04:15:05 10° NNW 04:20:19 70° WSW 04:25:32 10° S
EO 1 Del DPAF 3.7 04:20:55 32° SW 04:22:02 40° W 04:25:42 10° NNW
Centaur D-1A AC-31 4.4 04:05:03 20° SW 04:24:07 38° S 04:30:59 10° ESE
ATLAS CENTAUR R/B 2.7 04:21:52 23° WSW 04:24:22 38° NW 04:29:03 10° NNE
Cosmos 1378 3.5 04:23:34 10° NNW 04:27:12 45° W 04:28:59 25° SSW
Meteor 1-24 Rocket 4.2 04:21:52 10° NNW 04:27:15 44° W 04:31:35 16° SSW
SL-16 R/B 3.8 04:22:33 10° SSE 04:27:26 31° ESE 04:32:21 10° NE
Cosmos 2142 Rocket 4.4 04:25:02 13° S 04:30:31 78° W 04:36:40 10° N
Resurs 1-4 Rocket 2.9 04:26:51 10° N 04:31:35 35° WNW 04:34:28 20° WSW
Cosmos 836 Rocket 4.5 04:28:46 20° SSW 04:32:27 74° WNW 04:37:43 10° NNE
Cosmos 1805 3.2 04:30:34 20° SSW 04:33:10 71° W 04:37:05 10° N
Okean O Rocket 1.5 04:29:39 10° N 04:34:03 79° WNW 04:37:39 15° SSW
PAYLOAD B 4.3 04:29:53 10° NNE 04:35:32 83° ESE 04:41:07 10° SSW
Cosmos 1500 Rocket 4.3 04:31:35 10° N 04:35:54 53° E 04:40:10 10° SSE
Cosmos 1743 Rocket 3.5 04:35:37 10° N 04:39:59 89° WSW 04:44:20 10° S
Cosmos 1441 Rocket 3.8 04:36:31 10° NNW 04:40:16 40° W 04:43:16 15° SSW
SL-16 R/B 3.3 04:37:31 16° SSW 04:41:29 30° W 04:46:50 10° NW
Cosmos 1125 Rocket 3.7 04:38:28 10° NNW 04:43:41 77° ENE 04:48:52 10° SSE
Cosmos 1076 Rocket 4.3 04:40:45 10° NNW 04:44:34 31° W 04:47:19 16° SW
Aureole 1 Rocket 4.4 04:41:11 10° S 04:46:26 62° ESE 04:53:23 10° NNE
Cosmos 2279 Rocket 4.0 04:41:55 10° S 04:48:11 88° E 04:54:28 10° N
CZ-4B R/B 3.2 04:43:01 10° N 04:48:36 79° WNW 04:54:01 10° SSW
Cosmos 1733 4.2 04:45:40 10° SSE 04:49:18 47° E 04:52:58 10° NNE
Cosmos 841 Rocket 4.3 04:46:48 16° SW 04:50:23 36° WNW 04:55:14 10° N
Aurora 2 Rocket 4.1 04:51:00 10° S 04:51:23 10° S 04:51:46 10° S
GPS 2-04 Rocket1 2.5 04:49:21 15° W 04:52:30 69° S 04:56:12 10° E
Cosmos 2227 4.3 04:51:08 10° NNW 04:56:56 87° ENE 05:02:41 10° SSE
Meteor 1-21 Rocket 4.4 04:51:49 10° NNW 04:57:40 64° W 05:03:30 10° S
ARGOS Delta rocket 3.9 04:52:35 10° N 04:57:46 76° WNW 05:02:36 10° SSW
ARIANE 5 R/B 4.4 04:55:18 10° NNW 04:58:01 15° WNW 05:00:46 10° W
Cosmos 1655 Rocket 4.0 04:52:06 10° N 04:58:29 74° W 05:04:50 10° S
CZ-3 R/B 3.6 04:37:39 14° WSW 04:59:32 45° S 05:06:32 10° ESE
BREEZE-M DEB (TANK) 3.7 04:58:19 10° WSW 05:02:42 40° NNW 05:06:51 10° NE
Cosmos 1437 3.2 05:01:41 10° NNW 05:04:51 42° W 05:08:01 10° SSW
ASTRO E2 3.8 05:02:59 12° WSW 05:05:58 26° SSW 05:09:23 10° SE
Cosmos-2242 4.2 05:03:08 12° SW 05:06:20 25° WNW 05:09:57 10° NNW
Cosmos 2221 3.7 05:03:07 10° SSE 05:07:10 44° E 05:11:15 10° NNE
CZ-4B R/B 3.2 05:03:24 10° N 05:07:14 46° WNW 05:10:52 10° SSW
Thor Agena Rocket 3.5 05:05:15 10° S 05:10:12 58° WSW 05:15:12 10° NNW
NOSS 3-4 (A) 4.3 05:04:24 10° NW 05:10:54 39° WSW 05:17:40 10° S
NOSS 3-4 (C) 4.3 05:04:30 10° NW 05:11:02 39° WSW 05:17:52 10° S
Okean-O 2.7 05:09:22 10° NNE 05:13:50 90° WNW 05:18:15 10° SSW
CZ-2D R/B 4.1 05:19:19 10° NW 05:21:45 13° WNW 05:24:09 10° W
PSLV R/B 3.5 05:19:16 10° N 05:23:29 70° WNW 05:27:42 10° SSW
Cosmos 1697 Rocket 4.3 05:19:29 10° W 05:23:29 19° NW 05:27:30 10° N
Cosmos 1842 Rocket 4.3 05:19:24 10° SW 05:23:30 35° WNW 05:27:38 10° NNW
Abrixas 4.3 05:22:01 10° NW 05:24:53 35° NNE 05:27:44 10° E
ADEOS Rocket 3.5 05:18:24 10° NNE 05:24:54 82° ESE 05:32:06 10° SSW
